Location: Innsbruck
(47.2657°N, 11.3914°E)
Time: 23:45:56
(UTC+01:00)

UNISAT 6 - Visible Passes

Search period start: 01 December 2021 00:00
Search period end: 11 December 2021 00:00
Orbit: 605 x 688 km, 97.7° (Epoch: 01 December)

Date Brightness Start Highest point End Pass type
(mag) Time Alt. Az. Time Alt. Az. Time Alt. Az.
01 Dec ? 05:30:24 10° SE 05:34:18 35° ENE 05:38:12 10° N visible
01 Dec ? 19:02:23 12° S 19:02:23 12° S 19:02:43 10° S visible
02 Dec ? 05:55:31 10° SSE 05:59:46 63° ENE 06:03:59 10° N visible
02 Dec ? 19:28:09 12° SSW 19:28:09 12° SSW 19:28:26 10° SSW visible
03 Dec ? 04:46:53 10° E 04:49:09 14° ENE 04:51:23 10° NNE visible
03 Dec ? 06:21:01 10° S 06:25:18 71° WSW 06:29:35 10° NNW visible
04 Dec ? 05:11:03 10° ESE 05:14:26 23° ENE 05:17:50 10° NNE visible
04 Dec ? 06:46:57 10° SSW 06:50:56 38° W 06:54:56 10° NNW visible
04 Dec ? 18:41:59 12° SSE 18:41:59 12° SSE 18:42:22 10° SSE visible
05 Dec ? 05:35:50 10° SE 05:39:49 40° ENE 05:43:48 10° N visible
05 Dec ? 19:07:44 14° S 19:07:44 14° S 19:08:24 10° S visible
06 Dec ? 06:01:02 10° SSE 06:05:17 73° ENE 06:09:33 10° N visible
06 Dec ? 19:33:30 13° SSW 19:33:30 13° SSW 19:34:01 10° SSW visible
07 Dec ? 04:52:01 10° E 04:54:37 16° ENE 04:57:12 10° NNE visible
07 Dec ? 06:26:38 10° S 06:30:51 61° W 06:35:04 10° NNW visible
07 Dec ? 18:21:33 11° SE 18:21:33 11° SE 18:21:42 10° SE visible
08 Dec ? 05:16:22 10° ESE 05:19:55 26° ENE 05:23:29 10° N visible
08 Dec ? 06:52:39 10° SSW 06:56:30 33° W 07:00:22 10° NNW visible
08 Dec ? 18:47:18 15° SSE 18:47:18 15° SSE 18:48:08 10° SSE visible
09 Dec ? 05:41:16 10° SE 05:45:19 46° ENE 05:49:24 10° N visible
09 Dec ? 19:13:03 17° S 19:13:03 17° S 19:14:03 10° S visible
10 Dec ? 04:33:53 10° ENE 04:34:51 11° ENE 04:35:48 10° NE visible
10 Dec ? 06:06:33 10° SSE 06:10:48 84° ENE 06:15:05 10° NNW visible
10 Dec ? 19:38:47 15° SSW 19:38:47 15° SSW 19:39:34 10° SSW visible
